星链-3913 (STARLINK-3913 )

导读 | 星芒AI

STARLINK-3913 是 SpaceX Starlink 卫星互联网项目中的一颗低轨卫星,属于第13批发射的Starlink卫星群。该卫星旨在为全球用户提供高速、低延迟的互联网服务,尤其关注网络覆盖不足的地区。它运行在约550公里高的近地轨道,配备先进通信设备,支持Ka和Ku频段传输。作为Starlink星座的一部分,STARLINK-3913 有助于构建更广泛的全球宽带网络,提升远程通信能力。

基本信息
目录编号:
52485
目录名称:
STARLINK-3913
国际标识:
2022-049AL
轨道中心:
EARTH
卫星名称:
星链-3913
卫星全名:
星链-3913 (STARLINK-3913 )
卫星状态:
在轨 (已飞行1279 天)
发射日期:
2022-05-06 UTC
国别 :
美国 (US)
星等 :
--
轨道信息
数据来源 国际轨道数据 AOE轨道数据
星历时间 2025-11-04T10:51:14+0800
22小时前
查看轨道信息
2025-11-03T18:00:00+0800
1天前
查看轨道信息
半长轴 6917.88km 6917.843km
偏心率 0.0001623 0.0001159
轨道倾角 53.217° 53.217°
近地点辐角 82.145° 100.839°
升交点赤经 252.829° 255.981°
平近点角 277.972° 42.791°
近地点 538.622km 538.906km
远地点 540.868km 540.51km
周期 95.438分钟 95.437分钟
每日圈数 15.088404 15.088524
详细信息
固有亮度:
5
最大亮度:
2.5
卫星平台:
Starlink v1.5
覆盖范围:
全球
运营商:
太空探索技术公司
运营商所在国:
美国
制造商(研发单位):
太空探索技术公司
制造商所在国:
美国
使用方式:
暂无
卫星简介
星链(Starlink)计划是由太空探索技术公司(SpaceX)提出的一个巨型低轨卫星互联网星座项目,计划在2019年至2024年间在太空搭建由约1.2万颗卫星组成的“星链”网络,其中1584颗将部署在地球上空550千米处的近地轨道,并从2020年开始工作。该卫星仍在工作。
2D轨道图
3D轨道图
轨道高度分析图
轨道倾角分析图
轨道综合分析图
查看轨道综合分析图